sat.trackr.live / text

‹ back to catalog

GAOFEN-11 02

NORAD 46396 · 2020-064A

PAYLOAD ACTIVE UNKNOWN

§ Identity

Operator
Country
PRC
Launch date
2020-09-07
Launch site
TAISC
Launch vehicle
Mass (kg)
RCS (m²)

External: N2YO · Heavens-Above · Gunter

§ Orbital elements

Epoch: 2026-05-25T05:00:54.470592Z

Period
94.53 min
Inclination
97.5107°
Eccentricity
0.0018133
Mean motion
15.23328006 rev/d
Perigee alt
483.3 km
Apogee alt
508.3 km
Semi-major
6,873.9 km
B*
2.3024e-4
RAAN
271.2029°
Arg perigee
25.5142°
Mean anomaly
334.6986°
Rev number
31,803

§ Raw data

GAOFEN-11 021 46396U 20064A   26145.20896378  .00005418  00000+0  23024-3 0  99922 46396  97.5107 271.2029 0018133  25.5142 334.6986 15.23328006318031

JSON: /api/v1/satellites/46396 · /tle

For live sub-satellite position, see the globe view (requires WebGL).

§ Visibility from observer

Set your observer location to see the next 7 days of passes ≥ 10°. The values pass through the URL so the page stays shareable.

No JS? Fill the form by hand. The geolocation button needs JavaScript.